Wind_Speed
10 9 9 10 11 12 13 15 17 18 20 21 23 24 25 26 27 27 28 29 30 32 33 34 35 35 36 37 38 39 39 39 39 40 40 40 41 41 41 41 41 40 40
13 12 13 14 14 15 17 18 20 22 23 25 26 28 29 30 31 31 32 33 34 35 37 37 38 39 39 40 41 42 43 43 44 45 45 46 46 47 47 47 47 47 47
17 17 17 18 18 19 20 22 24 25 27 29 30 31 32 33 34 34 35 36 36 37 38 39 40 40 41 42 42 43 44 44 45 46 47 47 48 50 51 51 52 52 52
22 22 22 23 23 23 24 25 26 28 30 31 33 34 34 35 36 37 38 39 40 40 41 42 42 42 43 43 44 45 46 47 47 48 48 49 49 50 51 51 52 52 52
28 27 27 27 28 28 28 29 30 31 33 34 35 36 37 37 38 39 40 41 42 43 44 45 46 46 46 47 48 49 50 50 51 51 52 52 52 52 52 52 52 53 52
32 31 31 31 32 32 32 32 32 33 34 35 37 38 39 40 40 41 42 43 44 45 46 48 49 50 51 52 53 54 54 55 55 56 56 56 56 55 55 55 54 54 53
34 34 34 35 34 34 33 34 33 34 35 36 38 39 40 41 42 43 44 45 47 48 50 51 52 54 55 56 57 57 58 58 58 58 58 58 58 58 57 57 57 56 55
34 35 34 34 34 33 33 32 33 35 38 39 40 41 42 43 44 46 47 49 50 52 53 55 56 57 58 59 60 60 60 60 60 60 60 60 60 60 59 59 59 59 58
32 31 30 32 32 32 34 36 37 39 41 42 43 44 45 46 47 48 50 51 54 56 57 59 60 62 62 63 63 63 63 63 63 63 63 63 63 63 63 63 62 62 61
28 28 29 31 32 35 38 39 41 43 45 46 47 47 48 49 51 52 53 56 58 60 61 63 64 65 66 66 66 66 66 67 67 67 67 67 68 68 67 67 67 66 65
29 29 30 33 36 39 42 44 45 47 48 50 51 52 54 55 56 57 58 60 61 63 65 66 67 68 68 68 69 69 70 70 71 72 72 72 72 72 71 71 69 68 67
31 33 35 38 40 43 45 48 50 51 52 54 55 57 58 59 61 63 63 63 63 63 65 66 67 68 69 70 71 71 72 73 74 75 75 75 75 75 74 74 72 70 68
34 37 39 42 44 47 49 51 52 54 57 58 60 61 63 65 67 67 66 66 64 63 63 65 67 69 70 71 72 73 75 76 76 77 77 77 78 77 77 76 75 73 70
38 40 42 45 47 50 53 54 56 59 61 62 64 66 68 68 68 67 67 65 64 63 62 64 66 69 71 71 72 74 75 76 77 77 78 78 78 78 77 76 76 74 72
42 44 46 49 52 54 57 58 61 63 65 67 68 69 68 67 66 65 65 65 65 63 61 63 65 68 70 71 73 74 75 76 76 76 76 75 73 72 71 71 70 70 70
46 48 50 53 56 59 61 62 64 66 68 68 68 68 66 64 63 63 63 63 64 64 61 63 66 70 72 73 74 75 74 72 71 69 66 64 62 60 59 59 59 61 63
50 52 55 57 60 62 64 65 66 67 67 67 65 64 62 61 61 61 62 63 64 65 65 65 67 70 72 72 71 68 65 61 58 55 53 51 49 48 47 46 47 48 51
53 55 57 59 62 63 65 65 65 65 64 63 61 60 60 60 61 62 63 64 65 66 67 66 65 65 64 61 57 54 50 47 44 41 39 38 38 38 39 39 39 40 42
55 57 59 60 62 63 63 63 63 62 60 60 59 59 59 60 61 62 63 64 65 65 65 63 58 54 50 46 43 40 38 36 33 31 30 31 32 33 34 35 35 36 36
56 58 59 60 61 61 61 61 60 59 59 59 58 59 59 60 61 62 62 63 62 59 56 50 44 39 36 34 32 30 28 27 26 25 25 26 27 28 29 30 31 32 33
57 58 58 59 59 59 58 58 57 57 58 57 58 59 60 60 60 60 59 57 53 48 42 36 32 30 29 27 25 24 22 23 24 23 22 23 23 23 24 25 26 27 28
55 55 55 56 56 56 56 55 56 57 57 57 57 58 58 57 56 54 51 47 42 36 30 26 24 24 23 22 21 21 20 21 22 22 21 21 21 20 21 21 22 23 24
53 53 53 53 53 53 54 55 55 55 55 55 54 54 53 51 48 43 39 35 31 26 22 20 20 19 19 19 20 20 21 21 21 21 20 20 20 19 18 18 18 18 19
49 50 50 50 51 52 52 52 52 53 53 52 50 48 45 41 37 32 27 25 22 20 19 18 18 18 19 20 21 21 21 21 21 21 20 19 19 18 17 16 15 15 16
47 48 49 49 50 50 50 49 49 49 47 45 43 40 36 31 26 21 19 17 16 16 16 17 18 19 21 22 22 22 21 20 19 19 19 18 17 17 16 15 14 13 12
46 47 47 47 47 47 47 46 43 41 39 37 35 32 27 21 16 14 13 12 13 14 15 17 20 21 22 22 21 20 18 17 16 16 16 15 13 12 12 12 12 11 11
Wind_Direction
296 298 298 298 300 301 302 303 302 303 302 301 300 298 295 293 292 290 289 287 285 284 283 282 282 283 283 283 283 282 280 279 277 276 276 275 275 275 274 275 275 276 276
291 292 293 294 295 296 298 299 300 300 301 301 300 298 296 293 291 289 287 286 284 284 283 282 282 282 281 281 281 280 280 279 277 276 275 274 274 273 273 273 273 273 273
283 284 285 288 291 292 294 297 298 299 299 298 298 297 295 292 290 289 288 288 287 287 286 285 285 284 283 282 282 281 280 279 278 276 275 275 274 273 272 271 271 271 271
280 281 283 285 286 287 290 294 296 298 299 299 298 297 296 294 291 290 290 290 289 288 287 287 286 285 284 284 283 282 282 281 279 278 277 277 276 275 274 273 272 271 271
276 277 279 282 284 286 288 292 295 297 300 300 299 298 297 296 294 292 290 289 289 288 288 288 287 286 285 284 283 283 282 281 281 280 279 279 278 277 276 275 274 273 272
271 274 277 279 281 283 286 290 294 296 300 301 301 300 299 297 295 293 291 289 288 288 288 287 287 286 285 284 283 282 282 281 281 280 280 280 279 278 277 276 275 273 271
268 271 274 276 279 283 285 289 294 299 302 302 301 300 298 296 295 293 291 290 289 288 288 287 286 285 285 284 283 282 282 281 280 280 280 279 279 278 276 275 274 272 270
268 269 274 278 282 286 290 293 299 302 303 301 300 298 297 296 294 293 292 291 290 289 288 287 287 286 285 284 284 283 282 281 280 279 279 279 278 277 275 274 272 271 269
272 275 282 285 288 289 294 299 303 303 302 301 300 298 297 296 294 294 293 292 291 290 289 288 288 287 286 284 283 282 281 280 279 279 278 278 277 275 274 273 272 270 268
283 286 291 292 294 298 301 303 303 302 302 301 300 299 298 297 296 295 294 293 293 292 291 290 288 287 286 284 283 282 281 279 278 278 277 277 276 275 273 272 271 270 268
292 292 296 298 300 301 302 302 302 302 301 301 300 300 299 298 297 297 296 295 294 293 292 290 289 287 286 284 283 282 280 279 278 277 276 275 274 273 272 271 270 269 267
298 296 299 300 301 301 300 301 301 301 301 301 300 300 300 299 298 298 296 295 293 292 291 290 289 287 285 284 283 281 281 280 279 277 276 275 274 273 272 271 269 268 266
299 299 300 300 300 300 299 300 300 300 300 300 300 300 300 299 299 298 296 295 293 292 290 289 288 287 285 284 283 282 282 281 280 279 277 276 275 274 273 271 270 268 265
299 299 299 299 298 298 298 299 298 298 298 299 299 300 300 300 299 297 296 295 294 292 290 288 287 287 286 286 285 284 283 283 282 280 279 278 277 275 274 272 270 268 265
299 298 298 298 298 297 297 297 297 297 298 299 299 300 300 300 299 297 296 295 294 293 291 289 287 286 286 286 286 286 285 285 285 284 282 280 278 276 274 272 269 265 262
300 299 298 298 297 296 296 296 296 297 298 299 299 300 300 299 298 298 297 296 295 294 293 290 288 287 286 287 287 288 288 288 286 285 283 280 278 275 273 270 266 262 258
298 297 296 296 295 295 295 296 296 297 298 299 300 300 300 300 299 298 297 296 295 295 293 292 291 290 290 290 290 290 290 289 288 286 283 279 275 273 271 269 266 262 257
297 296 295 295 295 295 295 296 297 298 299 300 301 301 301 300 299 298 298 297 296 296 295 294 294 294 294 293 293 293 293 292 290 287 284 280 276 273 271 269 266 263 258
296 295 295 295 295 296 296 297 298 300 300 301 301 301 301 300 299 299 298 298 297 297 298 299 299 297 296 296 296 296 296 293 291 288 285 282 278 275 273 271 268 264 260
296 295 295 296 296 297 298 299 300 300 301 302 302 302 301 300 299 299 299 299 299 300 302 302 302 301 301 301 300 300 300 299 296 293 290 286 283 280 276 272 269 265 260
295 296 296 296 297 298 299 300 300 301 302 302 302 301 301 300 300 300 301 302 303 304 304 304 304 304 305 305 304 305 303 301 300 300 296 291 288 283 279 275 271 267 262
295 296 296 296 297 298 299 299 300 301 301 301 301 301 301 301 302 304 305 305 306 307 307 308 308 309 310 311 311 310 308 305 302 302 301 297 293 288 284 281 276 270 265
295 295 295 296 297 298 299 299 300 300 300 301 301 302 302 304 305 307 307 308 309 311 314 315 317 317 318 317 316 314 311 309 305 302 301 297 294 291 288 285 279 273 266
294 294 295 296 297 298 298 299 299 300 300 301 302 303 305 307 307 307 307 309 311 314 317 320 321 322 321 321 319 317 314 312 308 305 302 297 293 291 289 286 282 276 268
293 294 295 296 297 297 297 298 299 301 302 304 305 306 308 309 307 307 308 311 315 319 322 324 325 325 324 323 322 320 319 318 315 312 309 304 296 290 286 283 282 277 270
294 295 296 296 296 297 298 300 302 304 305 307 309 311 313 313 312 313 316 319 323 325 327 329 329 328 328 327 327 328 329 331 330 327 324 320 312 299 291 286 281 277 270
Height
5863 5862 5862 5861 5860 5859 5859 5858 5857 5856 5855 5854 5853 5852 5851 5850 5850 5849 5848 5847 5846 5845 5845 5844 5843 5842 5840 5839 5838 5836 5836 5835 5834 5834 5833 5833 5833 5833 5833 5834 5835 5835 5836
5860 5859 5858 5858 5857 5856 5855 5854 5853 5852 5850 5849 5848 5846 5845 5844 5843 5842 5841 5840 5839 5838 5836 5835 5834 5833 5831 5830 5829 5827 5826 5825 5824 5824 5823 5823 5823 5823 5823 5823 5824 5825 5826
5856 5855 5854 5853 5852 5851 5850 5849 5848 5847 5845 5844 5842 5840 5839 5837 5836 5834 5833 5832 5830 5828 5826 5825 5823 5822 5821 5819 5818 5817 5815 5814 5813 5812 5812 5811 5811 5811 5811 5811 5812 5813 5814
5851 5850 5849 5848 5846 5845 5844 5843 5842 5841 5839 5837 5835 5833 5831 5829 5827 5825 5824 5822 5820 5818 5816 5814 5812 5811 5809 5808 5806 5805 5803 5802 5801 5800 5799 5799 5798 5798 5798 5798 5799 5799 5800
5843 5843 5842 5841 5840 5839 5837 5836 5835 5834 5832 5830 5827 5825 5823 5820 5818 5816 5814 5812 5810 5807 5805 5802 5800 5799 5797 5795 5794 5792 5791 5789 5788 5787 5786 5785 5784 5784 5784 5784 5784 5785 5786
5834 5834 5833 5832 5832 5831 5830 5829 5827 5826 5824 5821 5819 5816 5814 5811 5809 5807 5804 5802 5799 5796 5794 5791 5789 5786 5784 5782 5780 5778 5777 5775 5774 5772 5771 5770 5769 5769 5768 5768 5769 5769 5771
5825 5825 5824 5824 5823 5822 5821 5820 5819 5817 5815 5813 5810 5807 5805 5802 5799 5796 5794 5791 5788 5785 5782 5779 5776 5773 5771 5768 5766 5763 5762 5760 5758 5757 5755 5754 5754 5753 5752 5752 5752 5753 5754
5817 5817 5816 5816 5815 5814 5813 5811 5810 5808 5806 5804 5802 5798 5795 5793 5789 5786 5783 5779 5776 5772 5769 5766 5762 5759 5756 5753 5750 5747 5745 5743 5742 5740 5738 5737 5736 5736 5735 5735 5735 5736 5737
5810 5809 5808 5808 5807 5806 5804 5802 5800 5798 5796 5794 5791 5788 5785 5782 5778 5775 5771 5767 5763 5759 5755 5751 5747 5743 5740 5736 5733 5731 5728 5726 5724 5722 5720 5719 5718 5717 5717 5717 5717 5718 5719
5804 5802 5801 5800 5798 5797 5795 5793 5791 5789 5786 5783 5780 5777 5774 5771 5767 5763 5760 5754 5748 5744 5739 5734 5730 5726 5721 5718 5715 5712 5709 5707 5705 5703 5701 5700 5699 5698 5698 5698 5698 5699 5700
5796 5794 5794 5793 5791 5789 5786 5784 5781 5778 5775 5772 5769 5765 5761 5757 5753 5750 5746 5741 5734 5728 5722 5717 5711 5706 5702 5698 5694 5691 5689 5686 5684 5682 5680 5679 5677 5677 5676 5677 5677 5678 5679
5790 5788 5787 5785 5783 5780 5777 5774 5771 5768 5764 5760 5756 5752 5747 5743 5738 5733 5730 5725 5720 5714 5705 5698 5692 5686 5681 5677 5673 5670 5667 5664 5661 5659 5657 5656 5654 5654 5653 5654 5655 5656 5658
5784 5782 5779 5777 5774 5771 5767 5764 5760 5756 5752 5747 5743 5737 5732 5727 5721 5716 5711 5707 5703 5699 5691 5682 5672 5665 5659 5655 5651 5647 5644 5640 5638 5635 5633 5631 5630 5629 5628 5629 5630 5632 5635
5776 5773 5771 5768 5764 5760 5756 5752 5748 5744 5739 5733 5728 5722 5716 5710 5703 5697 5692 5687 5684 5681 5675 5667 5656 5646 5638 5634 5629 5625 5621 5617 5614 5610 5608 5606 5604 5603 5603 5603 5605 5607 5610
5767 5764 5760 5757 5753 5749 5745 5740 5736 5731 5725 5719 5713 5707 5700 5693 5686 5679 5673 5667 5663 5661 5658 5650 5639 5630 5621 5615 5609 5604 5599 5594 5590 5586 5583 5580 5578 5577 5577 5577 5578 5580 5584
5756 5753 5750 5746 5741 5737 5732 5727 5722 5716 5710 5704 5698 5691 5684 5677 5670 5663 5656 5649 5642 5638 5637 5631 5621 5612 5604 5596 5590 5583 5578 5572 5567 5562 5558 5555 5554 5553 5553 5553 5554 5555 5558
5745 5742 5738 5733 5728 5723 5718 5713 5707 5701 5695 5688 5682 5675 5668 5662 5654 5647 5640 5633 5625 5619 5616 5612 5602 5593 5584 5576 5570 5563 5557 5552 5547 5542 5538 5536 5535 5534 5534 5535 5535 5536 5538
5733 5728 5724 5719 5714 5709 5703 5698 5692 5686 5679 5673 5666 5659 5653 5646 5639 5632 5624 5617 5609 5601 5596 5592 5584 5574 5565 5557 5551 5546 5540 5535 5531 5527 5524 5522 5521 5520 5520 5521 5521 5522 5523
5719 5714 5710 5704 5699 5693 5688 5682 5676 5670 5664 5658 5651 5645 5638 5631 5624 5616 5609 5601 5593 5585 5577 5572 5566 5557 5550 5543 5537 5533 5528 5524 5520 5517 5514 5512 5510 5510 5509 5509 5509 5510 5511
5705 5700 5694 5689 5683 5678 5672 5666 5661 5655 5649 5643 5637 5630 5623 5616 5609 5602 5594 5585 5578 5570 5562 5556 5550 5544 5538 5532 5528 5524 5520 5516 5512 5509 5507 5505 5503 5501 5500 5499 5499 5499 5500
5690 5685 5679 5674 5669 5663 5658 5653 5647 5642 5636 5629 5623 5616 5609 5602 5595 5587 5580 5572 5564 5558 5551 5546 5540 5535 5530 5525 5521 5518 5514 5511 5506 5503 5501 5498 5496 5494 5492 5491 5490 5490 5491
5676 5671 5666 5661 5655 5650 5645 5640 5635 5629 5623 5617 5610 5602 5595 5588 5581 5573 5566 5559 5553 5547 5543 5538 5534 5529 5525 5521 5517 5513 5509 5506 5502 5499 5496 5493 5490 5488 5486 5484 5483 5483 5483
5663 5658 5653 5648 5643 5638 5633 5628 5622 5616 5610 5604 5598 5590 5583 5576 5570 5563 5557 5551 5546 5541 5537 5533 5529 5525 5521 5517 5513 5509 5505 5501 5497 5494 5491 5488 5484 5483 5481 5479 5477 5477 5476
5650 5646 5641 5636 5632 5626 5621 5615 5610 5604 5598 5592 5586 5579 5573 5567 5561 5556 5551 5546 5541 5537 5534 5530 5526 5522 5518 5514 5509 5505 5501 5497 5492 5488 5485 5483 5480 5478 5476 5474 5473 5472 5471
5638 5634 5629 5624 5619 5614 5609 5604 5598 5592 5586 5581 5575 5570 5565 5559 5554 5550 5546 5543 5539 5535 5531 5528 5524 5519 5515 5510 5506 5501 5496 5492 5488 5484 5480 5477 5475 5473 5471 5470 5469 5468 5467
5626 5622 5617 5612 5608 5602 5598 5593 5588 5582 5577 5572 5567 5562 5557 5553 5550 5546 5543 5541 5537 5534 5530 5526 5522 5517 5512 5507 5502 5497 5493 5489 5484 5480 5476 5473 5470 5468 5467 5466 5465 5464 5464